Tracking 30061 objects as of 8-Dec-2024
HD Live streaming from Space Station
objects crossing your sky now

STARLINK-6079

Track STARLINK-6079 now!
10-day predictions
STARLINK-6079 is classified as:


NORAD ID: 56120
Int'l Code: 2023-046AD
Perigee: 565.5 km
Apogee: 566.9 km
Inclination: 43.0 °
Period: 95.8 minutes
Semi major axis: 6937 km
RCS: Unknown
Launch date: March 29, 2023
Source: United States (US)
Launch site: AIR FORCE EASTERN TEST RANGE (AFETR)
Your satellite tracking list
Your tracking list is empty




NASA's NSSDC Master Catalog

Two Line Element Set (TLE):
1 56120U 23046AD  24342.83472115  .00000853  00000-0  78183-4 0  9992
2 56120  43.0025 108.8684 0001061 264.0208  96.0513 15.02541318 93483
Source of the keplerian elements: AFSPC